Tracking 27112 objects as of 28-Mar-2023
HD Live streaming from Space Station
objects crossing your sky now

STARLINK-4375

Track STARLINK-4375 now!
10-day predictions
STARLINK-4375 is classified as:


NORAD ID: 53192
Int'l Code: 2022-084D
Perigee: 568.8 km
Apogee: 571.4 km
Inclination: 97.7 °
Period: 95.9 minutes
Semi major axis: 6941 km
RCS: Unknown
Launch date: July 22, 2022
Source: United States (US)
Launch site: AIR FORCE WESTERN TEST RANGE (AFWTR)
Your satellite tracking list
Your tracking list is empty




NASA's NSSDC Master Catalog

Two Line Element Set (TLE):
1 53192U 22084D   23086.60487899 -.00000883  00000-0 -64106-4 0  9998
2 53192  97.6566 148.8333 0001875 249.3426 110.7598 15.01265848 38239
Source of the keplerian elements: AFSPC